Location: ?????????
(54.7630°N, 39.4991°E)
Time: 20:16:19
(UTC+00:00)

NOSS 2-1 (D) - Pass Details

Date: 14 April 2026
Orbit: 373 x 1667 km, 63.3° (Epoch: 16 May)

Event Time Altitude Azimuth Distance (km) Brightness Sun altitude
Rises 19:02:24 0° 305° (NW) 2,310 7.9 -19.2°
Reaches altitude 10° 19:04:21 10° 296° (WNW) 1,517 6.5 -19.4°
Maximum altitude 19:07:22 35° 228° (SW) 790 4.0 -19.7°
Enters shadow 19:07:43 35° 215° (SW) 816 4.0 -19.7°
